Cambridge 100
12 May 2019

     

Page 1 of 4 (188 items)
Race NoNameChip TimeGenderPace
3118Johnathan Sutton04:13:05Male 23.0 m/hr
3115Melanie Staley04:35:04Female 21.2 m/hr
3103Adam Cleevely05:15:11Male 18.5 m/hr
3102Adam Knight05:18:03Male 18.3 m/hr
3133Muhammed Maliki05:46:32Male 16.8 m/hr
3008Nathan Clough06:01:47Male 16.1 m/hr
3160Rachael Davies06:06:25Female 15.9 m/hr
3111Andrew Hornsblow06:12:56Male 15.6 m/hr
3198Jane Newman06:16:35Female 15.5 m/hr
3155Graham Moore06:16:47Male 15.4 m/hr
3073Steve Dann06:20:41Male 15.3 m/hr
3079Chris Cope06:20:44Male 15.3 m/hr
3119Andrew Pakes06:23:59Male 15.2 m/hr
3099Andrew Morgan06:31:01Male 14.9 m/hr
3106Wayne Steel06:33:05Male 14.8 m/hr
3069Graeme Howard06:34:51Male 14.7 m/hr
3104Philip Brown06:36:57Male 14.7 m/hr
3098Andrew West06:39:04Male 14.6 m/hr
3043Chris Davie06:43:47Male 14.4 m/hr
3061Stephen Higgins06:45:25Male 14.4 m/hr
3078James Cardwell06:46:40Male 14.3 m/hr
3057Matthew Burton06:48:31Male 14.2 m/hr
3067Jack Robertson06:49:30Male 14.2 m/hr
3123Graham Knighton06:56:09Male 14.0 m/hr
3108Brian Heffernan06:57:38Male 13.9 m/hr
3045Nicholas Barber06:59:11Male 13.9 m/hr
3046Douglas Hiscock06:59:12Male 13.9 m/hr
3101James Gough07:00:00Male 13.9 m/hr
3100Mark West07:00:00Male 13.9 m/hr
3112Katherine Trezise07:01:21Female 13.8 m/hr
3081Jon Nicholson07:06:53Male 13.6 m/hr
3095Barney Poulton07:07:12Male 13.6 m/hr
3082Terry Spencer07:08:32Male 13.6 m/hr
3136Harriet Rhodes07:09:04Female 13.6 m/hr
3034James Cooke07:09:28Male 13.6 m/hr
3076Tom Ringer07:09:29Male 13.6 m/hr
3007Kirstie Bransfield-Garth07:10:00Female 13.5 m/hr
3006Simon Bransfield-Garth07:10:11Male 13.5 m/hr
3023Nigel Morris07:10:53Male 13.5 m/hr
3024Sue Graham07:10:55Female 13.5 m/hr
3151Adrian Taverna07:10:58Male 13.5 m/hr
3022Janie Morris07:11:20Female 13.5 m/hr
3178Colin Wadley07:11:33Male 13.5 m/hr
3180Elizabeth Tattersall07:12:09Female 13.5 m/hr
3186Tony Pither07:12:09Male 13.5 m/hr
3152Ian Cammish07:14:16Male 13.4 m/hr
3179Mark Crowther07:16:54Male 13.3 m/hr
3116Darryl Whittingstall07:17:48Male 13.3 m/hr
3005James Dyer07:20:15Male 13.2 m/hr
3137Mike Hopwood07:23:04Male 13.1 m/hr
Page 1 of 4 (188 items)